Date,TemperatureHighF,TemperatureAvgF,TemperatureLowF,DewpointHighF,DewpointAvgF,DewpointLowF,HumidityHigh,HumidityAvg,HumidityLow,PressureMaxIn,PressureMinIn,WindSpeedMaxMPH,WindSpeedAvgMPH,GustSpeedMaxMPH,PrecipitationSumIn
2013-2-1,50.4,47.6,43.0,48.5,44.8,38.0,95,90,81,30.06,29.40,10,4,25,0.23
2013-2-2,43.2,40.3,36.7,39.1,36.0,32.3,90,85,70,30.17,29.52,13,5,28,0.05
2013-2-3,43.5,40.3,36.5,41.6,35.0,30.7,93,82,66,30.24,30.07,8,4,17,0.13
2013-2-4,52.7,48.4,43.7,48.7,44.0,38.2,95,85,69,30.06,30.00,8,4,19,0.03
2013-2-5,46.9,41.9,37.2,40.7,35.8,30.1,88,79,65,30.00,29.55,14,6,25,0.11
2013-2-6,44.2,40.5,37.6,38.8,35.2,31.3,91,82,61,29.88,29.40,13,6,29,0.20
2013-2-7,42.4,39.0,36.5,35.0,32.8,29.9,91,79,63,30.07,29.89,9,4,26,0.04
2013-2-8,41.4,37.6,35.1,34.6,33.2,31.9,91,84,71,30.11,29.95,7,2,21,0.06
2013-2-9,38.8,35.9,33.8,34.5,32.3,29.5,93,87,78,30.14,30.01,2,0,9,0.14
2013-2-10,37.4,34.6,32.5,35.8,31.6,29.1,94,88,84,30.00,29.29,3,1,9,0.21
2013-2-11,46.8,42.8,37.8,40.9,39.1,35.6,95,87,70,29.62,29.28,5,2,17,0.06
2013-2-12,39.6,36.5,33.3,35.7,32.7,28.1,93,86,76,30.06,29.62,5,2,14,0.01
2013-2-13,37.0,33.5,31.3,28.7,25.3,23.0,83,72,61,30.26,30.07,3,0,9,0.00
2013-2-14,44.2,36.6,31.5,43.0,33.3,23.8,96,88,73,30.23,29.93,4,2,9,0.21
2013-2-15,49.6,45.6,43.2,42.5,40.4,37.0,93,83,62,30.22,29.99,5,2,14,0.00
2013-2-16,49.5,43.8,39.4,39.9,37.4,34.4,89,79,57,30.25,30.20,4,0,7,0.00
2013-2-17,43.5,39.3,35.8,39.4,35.3,32.8,94,86,74,30.20,30.08,4,1,10,0.00
2013-2-18,41.2,37.3,34.9,35.6,32.6,31.3,88,83,76,30.10,30.04,3,0,7,0.00
2013-2-19,48.6,41.3,36.0,35.3,33.1,31.3,84,73,53,30.10,30.01,2,0,7,0.00
2013-2-20,46.0,40.5,34.9,35.5,32.6,26.1,84,74,57,30.13,30.04,5,1,14,0.00
2013-2-21,37.0,33.8,30.6,25.8,22.8,19.6,79,64,53,30.13,30.00,6,1,17,0.00
2013-2-22,33.6,31.0,28.9,24.9,22.3,18.7,82,70,56,30.00,29.91,6,2,21,0.00
2013-2-23,30.4,29.0,26.2,26.0,22.2,19.7,86,76,66,30.04,29.91,7,3,17,0.00
2013-2-24,33.4,30.9,29.1,31.1,27.6,25.0,91,87,81,30.09,30.01,7,3,16,0.00
2013-2-25,35.4,33.8,32.7,33.3,31.9,30.7,95,93,91,30.20,30.07,5,2,14,0.19
2013-2-26,41.4,36.7,34.3,33.9,33.1,32.3,95,87,72,30.40,30.19,4,1,13,0.03
2013-2-27,39.0,37.5,35.4,37.2,35.4,33.3,93,92,87,30.41,30.35,4,2,15,0.05
2013-2-28,37.0,36.5,35.8,34.6,33.7,32.8,93,89,85,30.35,30.25,5,1,11,0.00